This demonstration page uses our WeatherBlox Daily Observations layout. Learn more.

Left ArrowRight Arrow

44.8408, -93.29828

Hourly Observations for July 6, 2021

Temp ( °F °C ) Dew Point ( °F °C ) Humidity (%) Winds ( mph kmh ) Pressure ( in mb ) Visibility ( mi km ) Precip ( " mm )
12:53 am 00:53 Partly Cloudy 82 27.8 64 17.8 55 55 Calm 29.93 1014 10 16 0.00 0.00
1:53 am 01:53 Partly Cloudy 81 27.2 64 17.8 57 57 SE 3 6 29.92 1013 10 16 0.00 0.00
2:53 am 02:53 Partly Cloudy 79 26.1 64 17.8 60 60 E 3 6 29.90 1012 10 16 0.00 0.00
3:53 am 03:53 Mostly Clear 80 26.7 64 17.8 58 58 Calm 29.92 1013 10 16 0.00 0.00
4:53 am 04:53 Mostly Cloudy 77 25 65 18.3 66 66 SE 3 6 29.91 1013 10 16 0.00 0.00
5:53 am 05:53 Mostly Cloudy 77 25 64 17.8 64 64 SE 6 9 29.92 1013 10 16 0.00 0.00
6:53 am 06:53 Cloudy 78 25.6 65 18.3 64 64 NW 3 6 29.95 1014 10 16 0.00 0.00
7:36 am 07:36 Cloudy 77 25 66 18.9 69 69 W 17 28 29.95 1014 10 16 0.00 0.00
7:53 am 07:53 Cloudy with Light Rain 74 23.3 68 20 82 82 WNW 16 26 29.97 1015 9 14 0.00 0.00
8:53 am 08:53 Cloudy with Light Rain 71 21.7 69 20.6 94 94 N 7 11 29.95 1014 9 14 0.11 2.79
9:53 am 09:53 Cloudy 73 22.8 70 21.1 90 90 NNE 5 7 29.94 1014 9 14 0.01 0.25
10:53 am 10:53 Cloudy 75 23.9 70 21.1 84 84 NNE 3 6 29.94 1014 8 13 0.00 0.00
11:53 am 11:53 Cloudy 79 26.1 71 21.7 77 77 Calm 29.94 1014 7 11 0.00 0.00
12:53 pm 12:53 Cloudy with Rain 75 23.9 71 21.7 88 88 N 12 19 29.95 1014 8 13 0.01 0.25
1:04 pm 13:04 Cloudy with Light Rain 76 24.4 72 22.2 88 88 NNW 12 19 29.93 1014 8 13 0.01 0.25
1:15 pm 13:15 Cloudy 77 25 72 22.2 85 85 N 12 19 29.93 1014 9 14 0.01 0.25
1:53 pm 13:53 Cloudy 77 25 69 20.6 77 77 NNE 12 19 29.96 1015 9 14 0.01 0.25
2:53 pm 14:53 Cloudy 76 24.4 68 20 77 77 NNE 8 13 29.95 1014 10 16 0.00 0.00
3:53 pm 15:53 Cloudy 75 23.9 67 19.4 76 76 NE 12 19 29.93 1014 10 16 0.00 0.00
4:53 pm 16:53 Cloudy 76 24.4 69 20.6 79 79 NNE 8 13 29.93 1014 9 14 0.00 0.00
5:19 pm 17:19 Mostly Cloudy 75 23.9 68 20 79 79 VRB 7 11 29.92 1013 9 14 0.00 0.00
5:53 pm 17:53 Mostly Cloudy 74 23.3 68 20 82 82 N 7 11 29.94 1014 10 16 0.00 0.00
6:32 pm 18:32 Cloudy with Light Rain 73 22.8 68 20 84 84 N 7 11 29.93 1014 9 14 0.00 0.00
6:53 pm 18:53 Cloudy with Light Rain 72 22.2 69 20.6 91 91 NNE 7 11 29.94 1014 6 10 0.01 0.25
7:38 pm 19:38 Cloudy with Light Rain 71 21.7 68 20 90 90 NNE 9 15 29.94 1014 8 13 0.00 0.00
7:49 pm 19:49 Cloudy with Light Rain 70 21 68 20 94 94 NE 10 17 29.94 1014 9 14 0.00 0.00
7:53 pm 19:53 Cloudy with Light Rain 70 21.1 68 20 93 93 NE 13 20 29.96 1015 8 13 0.00 0.00
8:02 pm 20:02 Cloudy 70 21.1 68 20 93 93 NNE 12 19 29.95 1014 9 14 0.00 0.00
8:44 pm 20:44 Cloudy with Rain 69 20.6 67 19.4 93 93 N 12 19 29.97 1015 3 4 0.03 0.76
8:53 pm 20:53 Cloudy with Light Rain 66 18.9 64 17.8 93 93 N 14 22 29.98 1015 3 5 0.07 1.78
9:13 pm 21:13 Cloudy with Light Rain 64 17.8 63 17.2 96 96 NNE 14 22 29.99 1015 5 8 0.02 0.51
9:28 pm 21:28 Cloudy with Light Rain 64 17.8 62 16.7 93 93 NNE 13 20 29.99 1015 8 13 0.03 0.76
9:53 pm 21:53 Cloudy with Rain 63 17.2 61 16.1 93 93 NNE 14 22 30.00 1016 3 5 0.07 1.78
11:16 pm 23:16 Cloudy with Rain 60 15.6 59 15 96 96 NNE 17 28 29.99 1016 3 4 0.04 1.02
11:30 pm 23:30 Cloudy with Light Rain 60 15.6 59 15 96 96 N 12 19 29.99 1016 3 5 0.06 1.52
11:53 pm 23:53 Cloudy with Light Rain 59 15 58 14.4 96 96 NNE 13 20 29.99 1016 4 6 0.07 1.78

Powered by AerisWeather